Tracking 18630 objects as of 26-May-2017
HD Live streaming from Space Station
objects crossing your sky now

BREEZE-M DEB

Track BREEZE-M DEB now!
10-day predictions


NORAD ID: 36958
Int'l Code: 2006-006CQ
Perigee: 414.2 km
Apogee: 13,074.7 km
Inclination: 51.8 °
Period: 249.1 minutes
Semi major axis: 13115 km
RCS: 0.0224 m2 (small)
Launch date: February 28, 2006
Source: Commonwealth of Independent States (former USSR) (CIS)
Launch site: TYURATAM MISSILE AND SPACE COMPLEX (TTMTR)

Note: This is SATELLITE DEBRIS
Your satellite tracking list
Your tracking list is empty





NASA's NSSDC Master Catalog

Two Line Element Set (TLE):
1 36958U 06006CQ  17136.50268750 +.00002293 +00000-0 +13900-2 0  9995
2 36958 051.7591 226.4919 4826540 153.8096 241.9607 05.78005656177933
Source of the keplerian elements: AFSPC